Home > Weather > Vancouver > Past weeks

Flag for USA Past Weather in Vancouver, Washington, USA — Yesterday and Last 2 Weeks

Now
67 °F

Clear.


Feels Like: 67 °F
Forecast: 61 / 78 °F
Wind: 7 mph from Northwest

Location: Vancouver - Pearson Airpark

Current Time: Jul 2, 2016 at 12:34:50 AM

Latest Report: Jul 1, 2016 at 11:53 PM


Visibility: 10 mi

Pressure: 30.01 "Hg

Humidity: 68%

Dew Point: 56 °F

Location of VancouverLocation

Past Weather in Vancouver — Graph

°F

Vancouver Temperature Yesterday

Maximum temperature yesterday: 80 °F (at 4:53 PM)
Minimum temperature yesterday: 54 °F (at 5:53 AM)
Average temperature yesterday: 67 °F

High & Low Weather Summary for the Past Weeks

 TemperatureHumidityPressure
High86 °F (Jun 26, 3:53 PM)96% (Jun 25, 5:53 AM)30.39 "Hg (Jun 25, 5:53 AM)
Low47 °F (Jun 19, 4:53 AM)31% (Jun 19, 4:53 PM)29.95 "Hg (Jun 22, 6:53 PM)
Average64 °F63%30.15 "Hg
* Reported Jun 16 10:53 PM — Jul 1 10:53 PM, Vancouver, Weather by CustomWeather, © 2016

Note: Actual official high and low records may vary slightly from our data, if they occured in-between our weather recording intervals... More about our weather records

Advertising

Vancouver Weather History for the Previous 24 Hours

Scroll right to see more
 ConditionsComfort  
Time TempWeatherWind HumidityBarometerVisibility
10:53 PM
Fri, Jul 1
69 °FClear.5 mph63%30.01 "Hg10 mi
9:53 PM71 °FSunny.9 mph61%30.01 "Hg10 mi
8:53 PM74 °FSunny.7 mph56%30.01 "Hg10 mi
7:53 PM77 °FSunny.6 mph50%30.01 "Hg10 mi
6:53 PM79 °FSunny.9 mph45%30.01 "Hg10 mi
5:53 PM80 °FSunny.8 mph42%30.02 "Hg10 mi
4:53 PM80 °FSunny.8 mph39%30.03 "Hg10 mi
3:53 PM78 °FSunny.6 mph37%30.04 "Hg10 mi
2:53 PM77 °FSunny.6 mph33%30.06 "Hg10 mi
1:53 PM74 °FSunny.8 mph40%30.09 "Hg10 mi
12:53 PM70 °FSunny.3 mph51%30.11 "Hg10 mi
11:53 AM67 °FSunny.9 mph61%30.12 "Hg10 mi
10:53 AM63 °FSunny.7 mph65%30.13 "Hg10 mi
9:53 AM60 °FOvercast.6 mph69%30.14 "Hg10 mi
8:53 AM58 °FOvercast.6 mph75%30.14 "Hg10 mi
7:53 AM58 °FOvercast.7 mph75%30.13 "Hg10 mi
7:01 AM56 °FScattered clouds.3 mph81%30.13 "Hg10 mi
5:53 AM54 °FClear.No wind83%30.12 "Hg10 mi
4:53 AM55 °FClear.5 mph80%30.12 "Hg10 mi
3:53 AM56 °FClear.3 mph77%30.13 "Hg10 mi
2:53 AM57 °FClear.3 mph78%30.12 "Hg10 mi
1:53 AM58 °FClear.No wind78%30.13 "Hg10 mi
12:53 AM59 °FClear.No wind75%30.13 "Hg10 mi
Weather by CustomWeather, © 2016

See weather overviewHow to use our weather pages